• In Deutschland
  • Länderverzeichnis
  • Für 7 Tage
  • Wassertemperatur
  • Satellitenkarten
  • Wetterkarte
  • Widgets
  • user-avatar
    Anmelden

    Stündliche Wetter Hrasdan

    Heute, 17 November, Freitag

    Zeit Temperatur Niederschläge Wind Luftdruck Luftfeuchtigkeit
    00:00 +2°C° 0 mm 0 m/S 614 mmHg 79%
    01:00 +2°C° 0 mm 0 m/S 614 mmHg 80%
    02:00 +1°C° 0 mm 0 m/S 614 mmHg 80%
    03:00 +2°C° 0 mm 1 m/S 614 mmHg 79%
    04:00 +2°C° 0 mm 1 m/S 614 mmHg 79%
    05:00 +1°C° 0 mm 0 m/S 614 mmHg 78%
    06:00 +1°C° 0 mm 0 m/S 614 mmHg 78%
    07:00 +2°C° 0 mm 0 m/S 614 mmHg 69%
    08:00 +5°C° 0 mm 1 m/S 615 mmHg 61%
    09:00 +6°C° 0 mm 1 m/S 616 mmHg 53%
    10:00 +7°C° 0 mm 1 m/S 616 mmHg 49%
    11:00 +8°C° 0 mm 1 m/S 616 mmHg 44%
    12:00 +8°C° 0 mm 2 m/S 616 mmHg 40%
    13:00 +8°C° 0 mm 2 m/S 616 mmHg 40%
    14:00 +8°C° 0 mm 2 m/S 615 mmHg 40%
    15:00 +9°C° 0 mm 1 m/S 615 mmHg 40%
    16:00 +8°C° 0 mm 1 m/S 615 mmHg 46%
    17:00 +6°C° 0 mm 1 m/S 614 mmHg 52%
    18:00 +5°C° 0 mm 1 m/S 614 mmHg 58%
    19:00 +4°C° 0 mm 1 m/S 614 mmHg 59%
    20:00 +4°C° 0 mm 1 m/S 614 mmHg 60%
    21:00 +4°C° 0 mm 1 m/S 614 mmHg 61%
    22:00 +3°C° 0 mm 1 m/S 614 mmHg 62%
    23:00 +3°C° 0 mm 1 m/S 614 mmHg 62%

    Morgen, 18 November, Samstag

    Zeit Temperatur Niederschläge Wind Luftdruck Luftfeuchtigkeit
    00:00 +3°C° 0 mm 1 m/S 614 mmHg 63%
    01:00 +3°C° 0 mm 1 m/S 614 mmHg 64%
    02:00 +3°C° 0 mm 1 m/S 614 mmHg 64%
    03:00 +2°C° 0 mm 1 m/S 614 mmHg 65%
    04:00 +2°C° 0 mm 1 m/S 614 mmHg 66%
    05:00 +2°C° 0 mm 1 m/S 614 mmHg 66%
    06:00 +2°C° 0 mm 1 m/S 614 mmHg 66%
    07:00 +3°C° 0 mm 1 m/S 615 mmHg 61%
    08:00 +4°C° 0 mm 1 m/S 615 mmHg 56%
    09:00 +6°C° 0 mm 1 m/S 616 mmHg 51%
    10:00 +6°C° 0 mm 2 m/S 616 mmHg 47%
    11:00 +7°C° 0 mm 2 m/S 616 mmHg 43%
    12:00 +8°C° 0 mm 2 m/S 616 mmHg 39%
    13:00 +8°C° 0 mm 2 m/S 616 mmHg 39%
    14:00 +8°C° 0 mm 2 m/S 616 mmHg 39%
    15:00 +8°C° 0 mm 2 m/S 615 mmHg 39%
    16:00 +6°C° 0 mm 2 m/S 615 mmHg 44%
    17:00 +5°C° 0 mm 2 m/S 615 mmHg 48%
    18:00 +5°C° 0 mm 1 m/S 614 mmHg 52%
    19:00 +4°C° 0 mm 1 m/S 614 mmHg 51%
    20:00 +3°C° 0 mm 2 m/S 614 mmHg 50%
    21:00 +3°C° 0 mm 2 m/S 614 mmHg 49%
    22:00 +3°C° 0 mm 2 m/S 614 mmHg 49%
    23:00 +3°C° 0 mm 2 m/S 614 mmHg 49%

    übermorgen, 19 November, Sonntag

    Zeit Temperatur Niederschläge Wind Luftdruck Luftfeuchtigkeit
    00:00 +3°C° 0 mm 2 m/S 614 mmHg 48%
    01:00 +3°C° 0 mm 2 m/S 614 mmHg 48%
    02:00 +2°C° 0 mm 2 m/S 613 mmHg 48%
    03:00 +2°C° 0 mm 2 m/S 613 mmHg 47%
    04:00 +2°C° 0 mm 2 m/S 613 mmHg 47%
    05:00 +2°C° 0 mm 2 m/S 613 mmHg 46%
    06:00 +2°C° 0 mm 2 m/S 613 mmHg 46%
    07:00 +4°C° 0 mm 2 m/S 613 mmHg 43%
    08:00 +5°C° 0 mm 2 m/S 614 mmHg 39%
    09:00 +6°C° 0 mm 2 m/S 614 mmHg 36%
    10:00 +7°C° 0 mm 3 m/S 614 mmHg 34%
    11:00 +8°C° 0 mm 3 m/S 614 mmHg 33%
    12:00 +9°C° 0 mm 3 m/S 614 mmHg 31%
    13:00 +8°C° 0,1 mm 3 m/S 614 mmHg 35%
    14:00 +8°C° 0,1 mm 3 m/S 613 mmHg 40%
    15:00 +7°C° 0,1 mm 3 m/S 613 mmHg 44%
    16:00 +6°C° 0,1 mm 2 m/S 612 mmHg 48%
    17:00 +5°C° 0,1 mm 2 m/S 612 mmHg 52%
    18:00 +4°C° 0,1 mm 2 m/S 612 mmHg 56%
    19:00 +4°C° 0 mm 2 m/S 612 mmHg 57%
    20:00 +3°C° 0 mm 2 m/S 612 mmHg 58%
    21:00 +3°C° 0 mm 2 m/S 612 mmHg 60%
    22:00 +3°C° 0 mm 2 m/S 612 mmHg 60%
    23:00 +3°C° 0 mm 2 m/S 612 mmHg 60%

    20 November, Montag

    Zeit Temperatur Niederschläge Wind Luftdruck Luftfeuchtigkeit
    00:00 +2°C° 0 mm 2 m/S 612 mmHg 60%
    01:00 +2°C° 0 mm 2 m/S 611 mmHg 60%
    02:00 +2°C° 0 mm 2 m/S 611 mmHg 61%
    03:00 +2°C° 0 mm 2 m/S 611 mmHg 61%
    04:00 +2°C° 0 mm 2 m/S 611 mmHg 63%
    05:00 +2°C° 0 mm 2 m/S 611 mmHg 64%
    06:00 +1°C° 0 mm 2 m/S 611 mmHg 65%
    07:00 +2°C° 0 mm 3 m/S 611 mmHg 62%
    08:00 +3°C° 0 mm 3 m/S 612 mmHg 59%
    09:00 +4°C° 0 mm 3 m/S 612 mmHg 56%
    10:00 +5°C° 0 mm 3 m/S 612 mmHg 53%
    11:00 +7°C° 0 mm 3 m/S 612 mmHg 51%
    12:00 +7°C° 0 mm 4 m/S 612 mmHg 48%
    13:00 +8°C° 0 mm 3 m/S 612 mmHg 49%
    14:00 +8°C° 0 mm 3 m/S 611 mmHg 49%
    15:00 +8°C° 0 mm 3 m/S 611 mmHg 49%
    16:00 +7°C° 0 mm 3 m/S 611 mmHg 54%
    17:00 +6°C° 0 mm 2 m/S 610 mmHg 59%
    18:00 +4°C° 0 mm 2 m/S 610 mmHg 63%
    19:00 +4°C° 0 mm 2 m/S 610 mmHg 64%
    20:00 +4°C° 0 mm 2 m/S 610 mmHg 65%
    21:00 +4°C° 0 mm 2 m/S 610 mmHg 66%
    22:00 +4°C° 0 mm 2 m/S 609 mmHg 67%
    23:00 +3°C° 0 mm 2 m/S 609 mmHg 68%

    21 November, Dienstag

    Zeit Temperatur Niederschläge Wind Luftdruck Luftfeuchtigkeit
    00:00 +3°C° 0 mm 2 m/S 609 mmHg 69%
    01:00 +3°C° 0 mm 2 m/S 609 mmHg 70%
    02:00 +3°C° 0 mm 2 m/S 609 mmHg 71%
    03:00 +3°C° 0 mm 2 m/S 608 mmHg 73%
    04:00 +3°C° 0 mm 2 m/S 608 mmHg 73%
    05:00 +3°C° 0 mm 2 m/S 608 mmHg 74%
    06:00 +3°C° 0 mm 2 m/S 608 mmHg 75%
    07:00 +4°C° 0 mm 2 m/S 608 mmHg 70%
    08:00 +5°C° 0 mm 2 m/S 609 mmHg 66%
    09:00 +6°C° 0 mm 2 m/S 609 mmHg 62%
    10:00 +7°C° 0 mm 2 m/S 609 mmHg 58%
    11:00 +8°C° 0 mm 2 m/S 609 mmHg 54%
    12:00 +9°C° 0 mm 3 m/S 609 mmHg 50%
    13:00 +8°C° 0 mm 3 m/S 608 mmHg 52%
    14:00 +8°C° 0 mm 3 m/S 608 mmHg 54%
    15:00 +8°C° 0 mm 2 m/S 608 mmHg 56%
    16:00 +7°C° 0 mm 2 m/S 607 mmHg 61%
    17:00 +6°C° 0 mm 2 m/S 607 mmHg 66%
    18:00 +6°C° 0 mm 1 m/S 607 mmHg 71%
    19:00 +6°C° 0 mm 1 m/S 607 mmHg 73%
    20:00 +5°C° 0 mm 1 m/S 607 mmHg 75%
    21:00 +4°C° 0 mm 2 m/S 607 mmHg 78%
    22:00 +5°C° 0 mm 1 m/S 607 mmHg 78%
    23:00 +4°C° 0 mm 1 m/S 607 mmHg 79%

    22 November, Mittwoch

    Zeit Temperatur Niederschläge Wind Luftdruck Luftfeuchtigkeit
    00:00 +4°C° 0 mm 1 m/S 606 mmHg 80%
    01:00 +4°C° 0 mm 1 m/S 606 mmHg 80%
    02:00 +4°C° 0 mm 1 m/S 606 mmHg 80%
    03:00 +4°C° 0 mm 1 m/S 606 mmHg 80%
    04:00 +4°C° 0 mm 1 m/S 606 mmHg 80%
    05:00 +3°C° 0 mm 1 m/S 606 mmHg 79%
    06:00 +3°C° 0 mm 1 m/S 606 mmHg 79%
    07:00 +4°C° 0 mm 1 m/S 606 mmHg 75%
    08:00 +5°C° 0 mm 1 m/S 607 mmHg 71%
    09:00 +6°C° 0 mm 1 m/S 607 mmHg 67%
    10:00 +6°C° 0,1 mm 1 m/S 607 mmHg 64%
    11:00 +7°C° 0,1 mm 1 m/S 607 mmHg 61%
    12:00 +7°C° 0,1 mm 1 m/S 607 mmHg 58%
    13:00 +6°C° 0,4 mm 2 m/S 607 mmHg 61%
    14:00 +5°C° 0,4 mm 2 m/S 607 mmHg 65%
    15:00 +5°C° 0,4 mm 2 m/S 606 mmHg 69%
    16:00 +4°C° 0,9 mm 2 m/S 606 mmHg 74%
    17:00 +4°C° 0,9 mm 2 m/S 607 mmHg 79%
    18:00 +3°C° 0,9 mm 2 m/S 607 mmHg 84%
    19:00 +3°C° 1 mm 2 m/S 607 mmHg 86%
    20:00 +3°C° 1 mm 1 m/S 607 mmHg 88%
    21:00 +3°C° 1 mm 1 m/S 607 mmHg 90%
    22:00 +3°C° 0,7 mm 1 m/S 607 mmHg 90%
    23:00 +3°C° 0,7 mm 1 m/S 608 mmHg 91%
    Mehr zeigen